Printer-friendly version

IAU Minor Planet Center

Minor Planet Center

MPEC 2008-W38 : 2008 WH14

The following Minor Planet Electronic Circular may be linked-to from your own Web pages, but must not otherwise be redistributed electronically.


Read MPEC 2008-W37 Read MPEC 2008-W39


M.P.E.C. 2008-W38                                Issued 2008 Nov. 21, 16:24 UT

     The Minor Planet Electronic Circulars contain information on unusual
         minor planets and routine data on comets.  They are published
   on behalf of Commission 20 of the International Astronomical Union by the
          Minor Planet Center, Smithsonian Astrophysical Observatory,
                          Cambridge, MA 02138, U.S.A.

             Prepared using the Tamkin Foundation Computer Network

                              MPC@CFA.HARVARD.EDU
          URL http://www.cfa.harvard.edu/iau/mpc.html  ISSN 1523-6714

                                   2008 WH14

Observations:
     K08W14H* C2008 11 21.22896 03 50 30.73 +13 29 40.7          20.4 V EW038G96
     K08W14H  C2008 11 21.23453 03 50 31.77 +13 30 38.7          20.6 V EW038G96
     K08W14H  C2008 11 21.24007 03 50 32.85 +13 31 36.6          20.2 V EW038G96
     K08W14H  C2008 11 21.24562 03 50 33.93 +13 32 33.9          20.6 V EW038G96
     K08W14H  C2008 11 21.28177 03 50 40.88 +13 38 49.0          20.3 V EW038G96
     K08W14H  C2008 11 21.28231 03 50 40.99 +13 38 55.0          20.1 V EW038G96
     K08W14H  C2008 11 21.28284 03 50 41.10 +13 39 01.0          21.1 V EW038G96
     K08W14H  C2008 11 21.28337 03 50 41.13 +13 39 06.3          20.8 V EW038G96
     K08W14H  C2008 11 21.36087 03 50 55.99 +13 52 24.3          19.8 V EW038G96
     K08W14H  C2008 11 21.36185 03 50 56.20 +13 52 33.8          19.9 V EW038G96
     K08W14H  C2008 11 21.36232 03 50 56.31 +13 52 38.3          20.1 V EW038G96
     K08W14H  C2008 11 21.36926 03 50 56.00 +13 53 25.6          19.8 R EW038H36
     K08W14H  C2008 11 21.37680 03 50 57.43 +13 54 42.3          20.3 R EW038H36
     K08W14H  C2008 11 21.44535 03 51 13.28 +14 06 42.9          19.9 V EW038G96
     K08W14H  C2008 11 21.44589 03 51 13.40 +14 06 47.9          20.0 V EW038G96
     K08W14H  C2008 11 21.44642 03 51 13.46 +14 06 53.2          20.5 V EW038G96

Observer details:
G96 Mt. Lemmon Survey.  Observer A. R. Gibbs.  Measurers E. C. Beshore,
    A. Boattini, G. J. Garradd, A. R. Gibbs, A. D. Grauer, R. E. Hill,
    R. A. Kowalski, S. M. Larson, R. H. McNaught.  1.5-m reflector + CCD.
H36 Sandlot Observatory, Scranton.  Observer G. Hug.  0.56-m reflector + CCD.

Orbital elements:
2008 WH14                                                Earth MOID = 0.0487 AU
Epoch 2008 Nov. 30.0 TT = JDT 2454800.5                 MPC
M   8.72556              (2000.0)            P               Q
n   0.59989495     Peri.  351.27662     +0.60023787     -0.79343771
a   1.3923633      Node    61.77350     +0.74055445     +0.50369008
e   0.2562626      Incl.    6.57267     +0.30214832     +0.34169123
P   1.64           H   26.3           G   0.15           U   8
Residuals in seconds of arc
081121 G96  0.6+  0.0     081121 G96  0.3+  0.5+    081121 H36  0.6-  0.8-
081121 G96  0.2-  0.0     081121 G96  0.8-  0.3+    081121 G96  0.1+  0.4+
081121 G96  0.2-  0.1+    081121 G96  0.5-  0.9+    081121 G96  0.2+  0.1-
081121 G96  0.2-  0.3-    081121 G96  0.2-  0.4+    081121 G96  0.6-  0.1-
081121 G96  0.0   0.5-    081121 G96  0.1+  0.0
081121 G96  0.1+  0.0     081121 H36  1.7+  0.8-

Ephemeris:
2008 WH14                a,e,i = 1.39, 0.26, 7                   q = 1.0356
Date    TT    R. A. (2000) Decl.     Delta      r     Elong.  Phase     V
2008 11 20    03 45.23   +09 57.6    0.0489   1.036   170.2     9.3    20.4
2008 11 21    03 49.46   +12 51.1    0.0491   1.037   172.9     6.8    20.3
2008 11 22    03 53.72   +15 42.4    0.0495   1.037   175.5     4.3    20.2
2008 11 23    03 58.01   +18 30.3    0.0501   1.038   178.0     1.9    20.1
2008 11 24    04 02.31   +21 13.6    0.0508   1.038   179.0     0.9    20.1
2008 11 25    04 06.62   +23 51.4    0.0517   1.039   176.8     3.0    20.3
2008 11 26    04 10.94   +26 22.7    0.0528   1.039   174.5     5.2    20.4
2008 11 27    04 15.26   +28 47.1    0.0540   1.040   172.3     7.3    20.6
2008 11 28    04 19.56   +31 04.1    0.0553   1.041   170.2     9.3    20.7
2008 11 29    04 23.85   +33 13.4    0.0567   1.042   168.2    11.1    20.8
2008 11 30    04 28.12   +35 14.8    0.0583   1.043   166.4    12.9    21.0
2008 12 01    04 32.35   +37 08.6    0.0600   1.044   164.6    14.5    21.1
2008 12 02    04 36.54   +38 54.6    0.0618   1.045   163.0    16.0    21.2
2008 12 03    04 40.69   +40 33.3    0.0636   1.046   161.5    17.4    21.3
2008 12 04    04 44.78   +42 04.7    0.0656   1.048   160.2    18.6    21.4
2008 12 05    04 48.82   +43 29.3    0.0677   1.049   158.9    19.8    21.5
2008 12 06    04 52.79   +44 47.4    0.0698   1.050   157.7    20.9    21.7
2008 12 07    04 56.70   +45 59.3    0.0721   1.052   156.6    21.8    21.8
2008 12 08    05 00.52   +47 05.3    0.0743   1.053   155.6    22.7    21.9
2008 12 09    05 04.27   +48 05.9    0.0767   1.055   154.7    23.5    21.9
2008 12 10    05 07.93   +49 01.4    0.0791   1.056   153.9    24.2    22.0

Timothy B. Spahr             (C) Copyright 2008 MPC           M.P.E.C. 2008-W38

Read MPEC 2008-W37 Read MPEC 2008-W39


Our Web policy. Index to the CBAT/MPC/ICQ pages.


Valid HTML 4.01!